Time,TemperatureF,DewpointF,PressureIn,WindDirection,WindDirectionDegrees,WindSpeedMPH,WindSpeedGustMPH,Humidity,HourlyPrecipIn,Conditions,Clouds,dailyrainin,SoftwareType,DateUTC
2013-01-24 00:02:00,12.0,12.0,30.29,SE,135,7.0,17.0,100,0.00,,,0.00,VWS V14.01,2013-01-24 07:02:00,
2013-01-24 00:07:00,12.0,12.0,30.29,SE,135,13.0,17.0,100,0.00,,,0.00,VWS V14.01,2013-01-24 07:07:00,
2013-01-24 00:12:00,12.0,12.0,30.28,SE,135,6.0,17.0,100,0.00,,,0.00,VWS V14.01,2013-01-24 07:12:00,
2013-01-24 00:17:00,12.0,12.0,30.28,SE,135,11.0,16.0,100,0.00,,,0.00,VWS V14.01,2013-01-24 07:17:00,
2013-01-24 00:22:00,12.0,12.0,30.28,SE,135,11.0,15.0,100,0.00,,,0.00,VWS V14.01,2013-01-24 07:22:00,
2013-01-24 00:27:00,12.0,12.0,30.28,SE,135,8.0,16.0,100,0.00,,,0.00,VWS V14.01,2013-01-24 07:27:00,
2013-01-24 00:32:00,12.0,12.0,30.27,SE,135,10.0,16.0,100,0.00,,,0.00,VWS V14.01,2013-01-24 07:32:00,
2013-01-24 00:37:00,12.0,12.0,30.27,SE,135,11.0,17.0,100,0.00,,,0.00,VWS V14.01,2013-01-24 07:37:00,
2013-01-24 00:42:00,12.0,12.0,30.27,SE,135,11.0,17.0,100,0.00,,,0.00,VWS V14.01,2013-01-24 07:42:00,
2013-01-24 00:47:00,12.0,12.0,30.27,SE,135,10.0,18.0,100,0.00,,,0.00,VWS V14.01,2013-01-24 07:47:00,
2013-01-24 00:52:00,12.0,12.0,30.27,SE,135,9.0,15.0,100,0.00,,,0.00,VWS V14.01,2013-01-24 07:52:00,
2013-01-24 00:57:00,12.0,12.0,30.27,SE,135,10.0,13.0,100,0.00,,,0.00,VWS V14.01,2013-01-24 07:57:00,
2013-01-24 01:02:00,12.0,12.0,30.27,SE,135,6.0,13.0,100,0.00,,,0.00,VWS V14.01,2013-01-24 08:02:00,
2013-01-24 01:07:00,11.0,11.0,30.27,SE,135,10.0,13.0,100,0.00,,,0.00,VWS V14.01,2013-01-24 08:07:00,
2013-01-24 01:12:00,11.0,11.0,30.27,SE,135,5.0,12.0,100,0.00,,,0.00,VWS V14.01,2013-01-24 08:12:00,
2013-01-24 01:17:00,10.0,10.0,30.27,ESE,112,8.0,13.0,100,0.00,,,0.00,VWS V14.01,2013-01-24 08:17:00,
2013-01-24 01:22:00,10.0,10.0,30.26,ESE,112,9.0,12.0,100,0.00,,,0.00,VWS V14.01,2013-01-24 08:22:00,
2013-01-24 01:27:00,11.0,11.0,30.26,ESE,112,7.0,11.0,100,0.00,,,0.00,VWS V14.01,2013-01-24 08:27:00,
2013-01-24 01:32:00,11.0,11.0,30.25,ESE,112,6.0,9.0,100,0.00,,,0.00,VWS V14.01,2013-01-24 08:32:00,
2013-01-24 01:37:00,11.0,11.0,30.25,SE,135,5.0,10.0,100,0.00,,,0.00,VWS V14.01,2013-01-24 08:37:00,
2013-01-24 01:43:00,11.0,11.0,30.25,SSE,157,9.0,11.0,100,0.00,,,0.00,VWS V14.01,2013-01-24 08:43:00,
2013-01-24 01:47:00,11.0,11.0,30.25,SSE,157,9.0,10.0,100,0.00,,,0.00,VWS V14.01,2013-01-24 08:47:00,
2013-01-24 01:53:00,11.0,11.0,30.24,SSE,157,10.0,11.0,100,0.00,,,0.00,VWS V14.01,2013-01-24 08:53:00,
2013-01-24 01:58:00,11.0,11.0,30.24,SE,135,7.0,8.0,100,0.00,,,0.00,VWS V14.01,2013-01-24 08:58:00,
2013-01-24 02:03:00,11.0,11.0,30.23,SE,135,6.0,12.0,100,0.00,,,0.00,VWS V14.01,2013-01-24 09:03:00,
2013-01-24 02:08:00,12.0,12.0,30.23,SE,135,3.0,13.0,100,0.00,,,0.00,VWS V14.01,2013-01-24 09:08:00,
2013-01-24 02:13:00,12.0,12.0,30.23,SE,135,7.0,13.0,100,0.00,,,0.00,VWS V14.01,2013-01-24 09:13:00,
2013-01-24 02:18:00,12.0,12.0,30.23,SSE,157,13.0,15.0,100,0.00,,,0.00,VWS V14.01,2013-01-24 09:18:00,
2013-01-24 02:23:00,12.0,12.0,30.23,SE,135,13.0,16.0,100,0.00,,,0.00,VWS V14.01,2013-01-24 09:23:00,
2013-01-24 02:28:00,12.0,12.0,30.23,SSE,157,9.0,13.0,100,0.00,,,0.00,VWS V14.01,2013-01-24 09:28:00,
2013-01-24 02:33:00,12.0,12.0,30.22,SE,135,12.0,15.0,100,0.00,,,0.00,VWS V14.01,2013-01-24 09:33:00,
2013-01-24 02:38:00,12.0,12.0,30.22,SE,135,12.0,15.0,100,0.00,,,0.00,VWS V14.01,2013-01-24 09:38:00,
2013-01-24 02:43:00,12.0,12.0,30.20,SE,135,10.0,15.0,100,0.00,,,0.00,VWS V14.01,2013-01-24 09:43:00,
2013-01-24 02:48:00,12.0,12.0,30.20,SE,135,7.0,17.0,100,0.00,,,0.00,VWS V14.01,2013-01-24 09:48:00,
2013-01-24 02:53:00,12.0,12.0,30.19,SE,135,9.0,13.0,100,0.00,,,0.00,VWS V14.01,2013-01-24 09:53:00,
2013-01-24 02:58:00,11.0,11.0,30.19,ESE,112,9.0,12.0,100,0.00,,,0.00,VWS V14.01,2013-01-24 09:58:00,
2013-01-24 03:03:00,11.0,11.0,30.19,SE,135,6.0,10.0,100,0.00,,,0.00,VWS V14.01,2013-01-24 10:03:00,
2013-01-24 03:08:00,11.0,11.0,30.19,ESE,112,2.0,8.0,100,0.00,,,0.00,VWS V14.01,2013-01-24 10:08:00,
2013-01-24 03:13:00,11.0,11.0,30.18,East,90,4.0,7.0,100,0.00,,,0.00,VWS V14.01,2013-01-24 10:13:00,
2013-01-24 03:18:00,10.0,10.0,30.18,ESE,112,1.0,6.0,100,0.00,,,0.00,VWS V14.01,2013-01-24 10:18:00,
2013-01-24 03:23:00,10.0,10.0,30.19,ESE,112,4.0,8.0,100,0.00,,,0.00,VWS V14.01,2013-01-24 10:23:00,
2013-01-24 03:28:00,9.0,9.0,30.19,SE,135,3.0,6.0,100,0.00,,,0.00,VWS V14.01,2013-01-24 10:28:00,
2013-01-24 03:33:00,9.0,9.0,30.19,SE,135,3.0,5.0,100,0.00,,,0.00,VWS V14.01,2013-01-24 10:33:00,
2013-01-24 03:38:00,9.0,9.0,30.19,SE,135,3.0,7.0,100,0.00,,,0.00,VWS V14.01,2013-01-24 10:38:00,
2013-01-24 03:43:00,9.0,9.0,30.18,East,90,5.0,6.0,100,0.00,,,0.00,VWS V14.01,2013-01-24 10:43:00,
2013-01-24 03:48:00,9.0,9.0,30.18,East,90,4.0,6.0,100,0.00,,,0.00,VWS V14.01,2013-01-24 10:48:00,
2013-01-24 03:53:00,9.0,9.0,30.18,East,90,3.0,6.0,100,0.00,,,0.00,VWS V14.01,2013-01-24 10:53:00,
2013-01-24 03:58:00,10.0,10.0,30.17,ESE,112,2.0,6.0,100,0.00,,,0.00,VWS V14.01,2013-01-24 10:58:00,
2013-01-24 04:03:00,10.0,10.0,30.17,SE,135,5.0,6.0,100,0.00,,,0.00,VWS V14.01,2013-01-24 11:03:00,
2013-01-24 04:08:00,10.0,10.0,30.17,ESE,112,6.0,7.0,100,0.00,,,0.00,VWS V14.01,2013-01-24 11:08:00,
2013-01-24 04:13:00,9.0,9.0,30.17,ENE,67,3.0,5.0,100,0.00,,,0.00,VWS V14.01,2013-01-24 11:13:00,
2013-01-24 04:18:00,10.0,10.0,30.16,SE,135,2.0,6.0,100,0.00,,,0.00,VWS V14.01,2013-01-24 11:18:00,
2013-01-24 04:23:00,10.0,10.0,30.16,East,90,0.0,5.0,100,0.00,,,0.00,VWS V14.01,2013-01-24 11:23:00,
2013-01-24 04:28:00,10.0,10.0,30.16,ESE,112,2.0,5.0,100,0.00,,,0.00,VWS V14.01,2013-01-24 11:28:00,
2013-01-24 04:33:00,10.0,10.0,30.16,SE,135,0.0,1.0,100,0.00,,,0.00,VWS V14.01,2013-01-24 11:33:00,
2013-01-24 04:39:00,9.0,9.0,30.15,SE,135,0.0,0.0,100,0.00,,,0.00,VWS V14.01,2013-01-24 11:39:00,
2013-01-24 04:44:00,9.0,9.0,30.15,SE,135,0.0,1.0,100,0.00,,,0.00,VWS V14.01,2013-01-24 11:44:00,
2013-01-24 04:49:00,9.0,9.0,30.15,SE,135,0.0,0.0,100,0.00,,,0.00,VWS V14.01,2013-01-24 11:49:00,
2013-01-24 04:54:00,9.0,9.0,30.15,SE,135,0.0,0.0,100,0.00,,,0.00,VWS V14.01,2013-01-24 11:54:00,
2013-01-24 04:59:00,9.0,9.0,30.15,SE,135,0.0,1.0,100,0.00,,,0.00,VWS V14.01,2013-01-24 11:59:00,
2013-01-24 05:04:00,9.0,9.0,30.15,SE,135,0.0,0.0,100,0.00,,,0.00,VWS V14.01,2013-01-24 12:04:00,
2013-01-24 05:09:00,9.0,9.0,30.14,SSE,157,0.0,2.0,100,0.00,,,0.00,VWS V14.01,2013-01-24 12:09:00,
2013-01-24 05:14:00,9.0,9.0,30.14,SSW,202,0.0,1.0,100,0.00,,,0.00,VWS V14.01,2013-01-24 12:14:00,
2013-01-24 05:19:00,8.0,8.0,30.14,South,180,6.0,6.0,100,0.00,,,0.00,VWS V14.01,2013-01-24 12:19:00,
2013-01-24 05:24:00,9.0,9.0,30.14,South,180,3.0,6.0,100,0.00,,,0.00,VWS V14.01,2013-01-24 12:24:00,
2013-01-24 05:29:00,9.0,9.0,30.13,SSW,202,3.0,4.0,100,0.00,,,0.00,VWS V14.01,2013-01-24 12:29:00,
2013-01-24 05:34:00,9.0,9.0,30.13,South,180,3.0,5.0,100,0.00,,,0.00,VWS V14.01,2013-01-24 12:34:00,
2013-01-24 05:39:00,10.0,10.0,30.12,South,180,1.0,5.0,100,0.00,,,0.00,VWS V14.01,2013-01-24 12:39:00,
2013-01-24 05:44:00,10.0,10.0,30.12,SSW,202,3.0,6.0,100,0.00,,,0.00,VWS V14.01,2013-01-24 12:44:00,
2013-01-24 05:49:00,10.0,10.0,30.13,SSW,202,0.0,4.0,100,0.00,,,0.00,VWS V14.01,2013-01-24 12:49:00,
2013-01-24 05:54:00,10.0,10.0,30.13,SSW,202,5.0,5.0,100,0.00,,,0.00,VWS V14.01,2013-01-24 12:54:00,
2013-01-24 05:59:00,10.0,10.0,30.13,SSW,202,0.0,6.0,100,0.00,,,0.00,VWS V14.01,2013-01-24 12:59:00,
2013-01-24 06:04:00,10.0,10.0,30.13,SSW,202,0.0,1.0,100,0.00,,,0.00,VWS V14.01,2013-01-24 13:04:00,
2013-01-24 06:09:00,10.0,10.0,30.13,South,180,0.0,0.0,100,0.00,,,0.00,VWS V14.01,2013-01-24 13:09:00,
2013-01-24 06:14:00,10.0,10.0,30.13,South,180,0.0,0.0,100,0.00,,,0.00,VWS V14.01,2013-01-24 13:14:00,
2013-01-24 06:19:00,10.0,10.0,30.13,SE,135,0.0,0.0,100,0.00,,,0.00,VWS V14.01,2013-01-24 13:19:00,
2013-01-24 06:24:00,10.0,10.0,30.13,SE,135,0.0,0.0,100,0.00,,,0.00,VWS V14.01,2013-01-24 13:24:00,
2013-01-24 06:29:00,10.0,10.0,30.13,SE,135,0.0,0.0,100,0.00,,,0.00,VWS V14.01,2013-01-24 13:29:00,
2013-01-24 06:34:00,10.0,10.0,30.13,SE,135,0.0,0.0,100,0.00,,,0.00,VWS V14.01,2013-01-24 13:34:00,
2013-01-24 06:39:00,10.0,10.0,30.13,SE,135,0.0,0.0,100,0.00,,,0.00,VWS V14.01,2013-01-24 13:39:00,
2013-01-24 06:44:00,10.0,10.0,30.13,North,360,0.0,0.0,100,0.00,,,0.00,VWS V14.01,2013-01-24 13:44:00,
2013-01-24 06:49:00,9.0,9.0,30.13,NNW,337,2.0,6.0,100,0.00,,,0.00,VWS V14.01,2013-01-24 13:49:00,
2013-01-24 06:54:00,9.0,9.0,30.13,NW,315,2.0,6.0,100,0.00,,,0.00,VWS V14.01,2013-01-24 13:54:00,
2013-01-24 06:59:00,10.0,10.0,30.13,NNW,337,4.0,7.0,100,0.00,,,0.00,VWS V14.01,2013-01-24 13:59:00,
2013-01-24 07:04:00,9.0,9.0,30.13,NNW,337,3.0,5.0,100,0.00,,,0.00,VWS V14.01,2013-01-24 14:04:00,
2013-01-24 07:09:00,9.0,9.0,30.13,North,360,3.0,7.0,100,0.00,,,0.00,VWS V14.01,2013-01-24 14:09:00,
2013-01-24 07:14:00,9.0,9.0,30.13,North,360,6.0,7.0,100,0.00,,,0.00,VWS V14.01,2013-01-24 14:14:00,
2013-01-24 07:19:00,10.0,10.0,30.12,NNW,337,2.0,8.0,100,0.00,,,0.00,VWS V14.01,2013-01-24 14:19:00,
2013-01-24 07:24:00,10.0,10.0,30.12,NNW,337,7.0,7.0,100,0.00,,,0.00,VWS V14.01,2013-01-24 14:24:00,
2013-01-24 07:29:00,10.0,10.0,30.12,NW,315,3.0,8.0,100,0.00,,,0.00,VWS V14.01,2013-01-24 14:29:00,
2013-01-24 07:34:00,10.0,10.0,30.12,NNW,337,3.0,7.0,100,0.00,,,0.00,VWS V14.01,2013-01-24 14:34:00,
2013-01-24 07:39:00,10.0,10.0,30.12,NW,315,6.0,7.0,100,0.00,,,0.00,VWS V14.01,2013-01-24 14:39:00,
2013-01-24 07:44:00,10.0,10.0,30.12,NNW,337,1.0,6.0,100,0.00,,,0.00,VWS V14.01,2013-01-24 14:44:00,
2013-01-24 07:49:00,11.0,11.0,30.11,NNW,337,3.0,5.0,100,0.00,,,0.00,VWS V14.01,2013-01-24 14:49:00,
2013-01-24 07:54:00,11.0,11.0,30.11,North,360,5.0,7.0,100,0.00,,,0.00,VWS V14.01,2013-01-24 14:54:00,
2013-01-24 07:59:00,11.0,11.0,30.11,North,360,2.0,8.0,100,0.00,,,0.00,VWS V14.01,2013-01-24 14:59:00,
2013-01-24 08:04:00,11.0,11.0,30.11,North,360,5.0,5.0,100,0.00,,,0.00,VWS V14.01,2013-01-24 15:04:00,
2013-01-24 08:09:00,11.0,11.0,30.11,NNW,337,6.0,6.0,100,0.00,,,0.00,VWS V14.01,2013-01-24 15:09:00,
2013-01-24 08:14:00,11.0,11.0,30.11,NW,315,2.0,6.0,100,0.00,,,0.00,VWS V14.01,2013-01-24 15:14:00,
2013-01-24 08:19:00,12.0,12.0,30.10,NNW,337,5.0,6.0,100,0.00,,,0.00,VWS V14.01,2013-01-24 15:19:00,
2013-01-24 08:24:00,12.0,12.0,30.10,NNW,337,5.0,6.0,100,0.00,,,0.00,VWS V14.01,2013-01-24 15:24:00,
2013-01-24 08:29:00,13.0,13.0,30.09,NNW,337,5.0,6.0,100,0.00,,,0.00,VWS V14.01,2013-01-24 15:29:00,
2013-01-24 08:34:00,13.0,13.0,30.09,NW,315,0.0,6.0,100,0.00,,,0.00,VWS V14.01,2013-01-24 15:34:00,
2013-01-24 08:39:00,14.0,14.0,30.08,North,360,5.0,6.0,100,0.00,,,0.00,VWS V14.01,2013-01-24 15:39:00,
2013-01-24 08:44:00,15.0,15.0,30.08,NNW,337,6.0,7.0,100,0.00,,,0.00,VWS V14.01,2013-01-24 15:44:00,
2013-01-24 08:49:00,15.0,15.0,30.07,North,360,6.0,6.0,100,0.00,,,0.00,VWS V14.01,2013-01-24 15:49:00,
2013-01-24 08:54:00,14.0,14.0,30.07,North,360,0.0,7.0,100,0.00,,,0.00,VWS V14.01,2013-01-24 15:54:00,
2013-01-24 08:59:00,15.0,15.0,30.08,North,360,3.0,4.0,100,0.00,,,0.00,VWS V14.01,2013-01-24 15:59:00,
2013-01-24 09:04:00,15.0,15.0,30.08,North,360,0.0,3.0,100,0.00,,,0.00,VWS V14.01,2013-01-24 16:04:00,
2013-01-24 09:09:00,15.0,15.0,30.08,North,360,2.0,4.0,100,0.00,,,0.00,VWS V14.01,2013-01-24 16:09:00,
2013-01-24 09:14:00,15.0,15.0,30.08,NNE,22,3.0,3.0,100,0.00,,,0.00,VWS V14.01,2013-01-24 16:14:00,
2013-01-24 09:19:00,15.0,15.0,30.08,NNE,22,0.0,3.0,100,0.00,,,0.00,VWS V14.01,2013-01-24 16:19:00,
2013-01-24 09:24:00,16.0,16.0,30.08,North,360,0.0,0.0,100,0.00,,,0.00,VWS V14.01,2013-01-24 16:24:00,
2013-01-24 09:29:00,17.0,17.0,30.07,NNW,337,0.0,0.0,100,0.00,,,0.00,VWS V14.01,2013-01-24 16:29:00,
2013-01-24 09:34:00,17.0,17.0,30.07,North,360,0.0,0.0,100,0.00,,,0.00,VWS V14.01,2013-01-24 16:34:00,
2013-01-24 09:39:00,18.0,18.0,30.05,North,360,0.0,0.0,100,0.00,,,0.00,VWS V14.01,2013-01-24 16:39:00,
2013-01-24 09:44:00,19.0,18.0,30.05,NNW,337,0.0,0.0,96,0.00,,,0.00,VWS V14.01,2013-01-24 16:44:00,
2013-01-24 09:49:00,19.0,18.3,30.03,NW,315,0.0,0.0,97,0.00,,,0.00,VWS V14.01,2013-01-24 16:49:00,
2013-01-24 09:54:00,20.0,18.8,30.03,NW,315,0.0,0.0,95,0.00,,,0.00,VWS V14.01,2013-01-24 16:54:00,
2013-01-24 09:59:00,22.0,19.8,30.02,NNW,337,0.0,0.0,91,0.00,,,0.00,VWS V14.01,2013-01-24 16:59:00,
2013-01-24 10:04:00,21.0,18.3,30.02,NNW,337,0.0,0.0,89,0.00,,,0.00,VWS V14.01,2013-01-24 17:04:00,
2013-01-24 10:09:00,22.0,20.0,30.01,WNW,292,0.0,0.0,92,0.00,,,0.00,VWS V14.01,2013-01-24 17:09:00,
2013-01-24 10:14:00,23.0,19.5,30.01,NNW,337,0.0,0.0,86,0.00,,,0.00,VWS V14.01,2013-01-24 17:14:00,
2013-01-24 10:19:00,24.0,19.3,30.00,North,360,0.0,0.0,82,0.00,,,0.00,VWS V14.01,2013-01-24 17:19:00,
2013-01-24 10:24:00,23.0,18.6,30.00,North,360,9.0,12.0,83,0.00,,,0.00,VWS V14.01,2013-01-24 17:24:00,
2013-01-24 10:29:00,21.0,17.2,30.03,NNW,337,9.0,12.0,85,0.00,,,0.00,VWS V14.01,2013-01-24 17:29:00,
2013-01-24 10:34:00,21.0,17.8,30.03,North,360,10.0,13.0,87,0.00,,,0.00,VWS V14.01,2013-01-24 17:34:00,
2013-01-24 10:39:00,21.0,17.5,30.02,North,360,13.0,15.0,86,0.00,,,0.00,VWS V14.01,2013-01-24 17:39:00,
2013-01-24 10:44:00,21.0,17.5,30.02,North,360,10.0,13.0,86,0.00,,,0.00,VWS V14.01,2013-01-24 17:44:00,
2013-01-24 10:49:00,22.0,18.2,30.03,NNW,337,12.0,15.0,85,0.00,,,0.00,VWS V14.01,2013-01-24 17:49:00,
2013-01-24 10:54:00,22.0,17.9,30.03,NNW,337,9.0,15.0,84,0.00,,,0.00,VWS V14.01,2013-01-24 17:54:00,
2013-01-24 10:59:00,23.0,18.9,30.01,NNW,337,12.0,17.0,84,0.00,,,0.00,VWS V14.01,2013-01-24 17:59:00,
2013-01-24 11:04:00,23.0,18.3,30.01,North,360,14.0,15.0,82,0.00,,,0.00,VWS V14.01,2013-01-24 18:04:00,
2013-01-24 11:09:00,24.0,18.1,30.01,North,360,12.0,15.0,78,0.00,,,0.00,VWS V14.01,2013-01-24 18:09:00,
2013-01-24 11:14:00,25.0,18.2,30.01,North,360,9.0,9.0,75,0.00,,,0.00,VWS V14.01,2013-01-24 18:14:00,
2013-01-24 11:19:00,26.0,18.5,29.99,North,360,7.0,7.0,73,0.00,,,0.00,VWS V14.01,2013-01-24 18:19:00,
2013-01-24 11:24:00,26.0,17.9,29.99,NNE,22,9.0,9.0,71,0.00,,,0.00,VWS V14.01,2013-01-24 18:24:00,
2013-01-24 11:29:00,26.0,17.9,29.99,North,360,6.0,7.0,71,0.00,,,0.00,VWS V14.01,2013-01-24 18:29:00,
2013-01-24 11:34:00,27.0,17.9,29.99,North,360,7.0,9.0,68,0.00,,,0.00,VWS V14.01,2013-01-24 18:34:00,
2013-01-24 11:39:00,28.0,18.1,29.99,North,360,5.0,6.0,66,0.00,,,0.00,VWS V14.01,2013-01-24 18:39:00,
2013-01-24 11:44:00,28.0,18.1,29.99,NNE,22,10.0,10.0,66,0.00,,,0.00,VWS V14.01,2013-01-24 18:44:00,
2013-01-24 11:49:00,29.0,18.0,29.97,NNW,337,8.0,8.0,63,0.00,,,0.00,VWS V14.01,2013-01-24 18:49:00,
2013-01-24 11:54:00,30.0,18.6,29.97,North,360,6.0,7.0,62,0.00,,,0.00,VWS V14.01,2013-01-24 18:54:00,
2013-01-24 11:59:00,30.0,19.0,29.96,North,360,4.0,6.0,63,0.00,,,0.00,VWS V14.01,2013-01-24 18:59:00,
2013-01-24 12:04:00,29.0,18.4,29.96,North,360,3.0,6.0,64,0.00,,,0.00,VWS V14.01,2013-01-24 19:04:00,
2013-01-24 12:09:00,29.0,18.7,29.95,NNE,22,0.0,1.0,65,0.00,,,0.00,VWS V14.01,2013-01-24 19:09:00,
2013-01-24 12:14:00,30.0,19.0,29.95,North,360,6.0,7.0,63,0.00,,,0.00,VWS V14.01,2013-01-24 19:14:00,
2013-01-24 12:19:00,30.0,18.6,29.95,North,360,0.0,2.0,62,0.00,,,0.00,VWS V14.01,2013-01-24 19:19:00,
2013-01-24 12:24:00,31.0,18.8,29.95,North,360,3.0,6.0,60,0.00,,,0.00,VWS V14.01,2013-01-24 19:24:00,
2013-01-24 12:29:00,31.0,18.4,29.94,North,360,1.0,3.0,59,0.00,,,0.00,VWS V14.01,2013-01-24 19:29:00,
2013-01-24 12:34:00,32.0,18.9,29.94,NNW,337,2.0,6.0,58,0.00,,,0.00,VWS V14.01,2013-01-24 19:34:00,
2013-01-24 12:39:00,33.0,19.0,29.93,NNW,337,3.0,4.0,56,0.00,,,0.00,VWS V14.01,2013-01-24 19:39:00,
2013-01-24 12:44:00,33.0,19.0,29.93,North,360,2.0,5.0,56,0.00,,,0.00,VWS V14.01,2013-01-24 19:44:00,
2013-01-24 12:49:00,34.0,19.5,29.92,North,360,4.0,6.0,55,0.00,,,0.00,VWS V14.01,2013-01-24 19:49:00,
2013-01-24 12:54:00,34.0,19.1,29.92,North,360,1.0,3.0,54,0.00,,,0.00,VWS V14.01,2013-01-24 19:54:00,
2013-01-24 12:59:00,34.0,18.2,29.92,North,360,6.0,7.0,52,0.00,,,0.00,VWS V14.01,2013-01-24 19:59:00,
2013-01-24 13:05:00,35.0,18.7,29.92,North,360,5.0,6.0,51,0.00,,,0.00,VWS V14.01,2013-01-24 20:05:00,
2013-01-24 13:10:00,34.0,18.2,29.92,North,360,1.0,2.0,52,0.00,,,0.00,VWS V14.01,2013-01-24 20:10:00,
2013-01-24 13:15:00,34.0,18.2,29.92,North,360,6.0,7.0,52,0.00,,,0.00,VWS V14.01,2013-01-24 20:15:00,
2013-01-24 13:20:00,34.0,18.7,29.92,North,360,4.0,6.0,53,0.00,,,0.00,VWS V14.01,2013-01-24 20:20:00,
2013-01-24 13:25:00,34.0,18.2,29.92,NNE,22,2.0,6.0,52,0.00,,,0.00,VWS V14.01,2013-01-24 20:25:00,
2013-01-24 13:30:00,35.0,19.2,29.91,NE,45,5.0,6.0,52,0.00,,,0.00,VWS V14.01,2013-01-24 20:30:00,
2013-01-24 13:35:00,34.0,18.7,29.91,North,360,3.0,6.0,53,0.00,,,0.00,VWS V14.01,2013-01-24 20:35:00,
2013-01-24 13:40:00,33.0,18.6,29.92,North,360,6.0,6.0,55,0.00,,,0.00,VWS V14.01,2013-01-24 20:40:00,
2013-01-24 13:45:00,35.0,19.6,29.92,North,360,6.0,6.0,53,0.00,,,0.00,VWS V14.01,2013-01-24 20:45:00,
2013-01-24 13:50:00,35.0,18.7,29.92,NNE,22,5.0,5.0,51,0.00,,,0.00,VWS V14.01,2013-01-24 20:50:00,
2013-01-24 13:55:00,37.0,19.1,29.92,North,360,6.0,6.0,48,0.00,,,0.00,VWS V14.01,2013-01-24 20:55:00,
2013-01-24 14:00:00,37.0,18.2,29.91,NE,45,0.0,2.0,46,0.00,,,0.00,VWS V14.01,2013-01-24 21:00:00,
2013-01-24 14:05:00,38.0,19.1,29.91,North,360,6.0,8.0,46,0.00,,,0.00,VWS V14.01,2013-01-24 21:05:00,
2013-01-24 14:10:00,37.0,18.7,29.91,North,360,7.0,10.0,47,0.00,,,0.00,VWS V14.01,2013-01-24 21:10:00,
2013-01-24 14:15:00,37.0,19.1,29.91,North,360,9.0,10.0,48,0.00,,,0.00,VWS V14.01,2013-01-24 21:15:00,
2013-01-24 14:20:00,37.0,19.6,29.92,North,360,10.0,12.0,49,0.00,,,0.00,VWS V14.01,2013-01-24 21:20:00,
2013-01-24 14:25:00,36.0,18.7,29.92,North,360,7.0,10.0,49,0.00,,,0.00,VWS V14.01,2013-01-24 21:25:00,
2013-01-24 14:30:00,37.0,19.6,29.93,North,360,7.0,9.0,49,0.00,,,0.00,VWS V14.01,2013-01-24 21:30:00,
2013-01-24 14:35:00,37.0,19.1,29.93,North,360,11.0,11.0,48,0.00,,,0.00,VWS V14.01,2013-01-24 21:35:00,
2013-01-24 14:40:00,38.0,19.6,29.92,NNW,337,9.0,9.0,47,0.00,,,0.00,VWS V14.01,2013-01-24 21:40:00,
2013-01-24 14:45:00,39.0,20.5,29.92,North,360,8.0,8.0,47,0.00,,,0.00,VWS V14.01,2013-01-24 21:45:00,
2013-01-24 14:50:00,39.0,20.0,29.92,North,360,8.0,9.0,46,0.00,,,0.00,VWS V14.01,2013-01-24 21:50:00,
2013-01-24 14:55:00,40.0,20.9,29.92,North,360,8.0,10.0,46,0.00,,,0.00,VWS V14.01,2013-01-24 21:55:00,
2013-01-24 15:00:00,41.0,20.8,29.92,North,360,14.0,14.0,44,0.00,,,0.00,VWS V14.01,2013-01-24 22:00:00,
2013-01-24 15:05:00,40.0,20.9,29.92,North,360,13.0,14.0,46,0.00,,,0.00,VWS V14.01,2013-01-24 22:05:00,
2013-01-24 15:10:00,40.0,21.4,29.93,NNW,337,8.0,12.0,47,0.00,,,0.00,VWS V14.01,2013-01-24 22:10:00,
2013-01-24 15:15:00,40.0,21.4,29.93,NNW,337,12.0,12.0,47,0.00,,,0.00,VWS V14.01,2013-01-24 22:15:00,
2013-01-24 15:20:00,40.0,20.9,29.93,NNW,337,11.0,13.0,46,0.00,,,0.00,VWS V14.01,2013-01-24 22:20:00,
2013-01-24 15:25:00,41.0,22.3,29.93,NNW,337,9.0,11.0,47,0.00,,,0.00,VWS V14.01,2013-01-24 22:25:00,
2013-01-24 15:30:00,40.0,21.4,29.93,NW,315,8.0,10.0,47,0.00,,,0.00,VWS V14.01,2013-01-24 22:30:00,
2013-01-24 15:35:00,40.0,21.4,29.93,NW,315,8.0,9.0,47,0.00,,,0.00,VWS V14.01,2013-01-24 22:35:00,
2013-01-24 15:40:00,40.0,20.9,29.94,NW,315,9.0,10.0,46,0.00,,,0.00,VWS V14.01,2013-01-24 22:40:00,
2013-01-24 15:45:00,41.0,22.3,29.94,NNW,337,8.0,9.0,47,0.00,,,0.00,VWS V14.01,2013-01-24 22:45:00,
2013-01-24 15:50:00,40.0,21.4,29.94,NNW,337,10.0,10.0,47,0.00,,,0.00,VWS V14.01,2013-01-24 22:50:00,
2013-01-24 15:55:00,40.0,21.4,29.94,NNW,337,9.0,11.0,47,0.00,,,0.00,VWS V14.01,2013-01-24 22:55:00,
2013-01-24 16:00:00,41.0,21.8,29.95,NW,315,10.0,16.0,46,0.00,,,0.00,VWS V14.01,2013-01-24 23:00:00,
2013-01-24 16:05:00,44.0,22.4,29.95,NNW,337,15.0,16.0,42,0.00,,,0.00,VWS V14.01,2013-01-24 23:05:00,
2013-01-24 16:10:00,43.0,21.5,29.93,NW,315,10.0,15.0,42,0.00,,,0.00,VWS V14.01,2013-01-24 23:10:00,
2013-01-24 16:15:00,43.0,22.0,29.93,NW,315,9.0,13.0,43,0.00,,,0.00,VWS V14.01,2013-01-24 23:15:00,
2013-01-24 16:20:00,42.0,21.1,29.94,NW,315,9.0,11.0,43,0.00,,,0.00,VWS V14.01,2013-01-24 23:20:00,
2013-01-24 16:25:00,42.0,22.2,29.94,NNW,337,8.0,10.0,45,0.00,,,0.00,VWS V14.01,2013-01-24 23:25:00,
2013-01-24 16:30:00,42.0,22.7,29.95,NNW,337,6.0,7.0,46,0.00,,,0.00,VWS V14.01,2013-01-24 23:30:00,
2013-01-24 16:35:00,41.0,22.3,29.95,North,360,6.0,6.0,47,0.00,,,0.00,VWS V14.01,2013-01-24 23:35:00,
2013-01-24 16:40:00,39.0,22.0,29.96,North,360,9.0,9.0,50,0.00,,,0.00,VWS V14.01,2013-01-24 23:40:00,
2013-01-24 16:45:00,39.0,22.0,29.96,North,360,6.0,9.0,50,0.00,,,0.00,VWS V14.01,2013-01-24 23:45:00,
2013-01-24 16:50:00,40.0,21.9,29.97,North,360,7.0,9.0,48,0.00,,,0.00,VWS V14.01,2013-01-24 23:50:00,
2013-01-24 16:55:00,40.0,22.4,29.97,North,360,6.0,9.0,49,0.00,,,0.00,VWS V14.01,2013-01-24 23:55:00,
2013-01-24 17:00:00,40.0,22.4,29.98,North,360,10.0,10.0,49,0.00,,,0.00,VWS V14.01,2013-01-25 00:00:00,
2013-01-24 17:05:00,40.0,22.4,29.98,North,360,7.0,9.0,49,0.00,,,0.00,VWS V14.01,2013-01-25 00:05:00,
2013-01-24 17:10:00,40.0,22.9,29.98,North,360,9.0,9.0,50,0.00,,,0.00,VWS V14.01,2013-01-25 00:10:00,
2013-01-24 17:15:00,40.0,23.4,29.98,North,360,6.0,6.0,51,0.00,,,0.00,VWS V14.01,2013-01-25 00:15:00,
2013-01-24 17:20:00,40.0,23.4,29.99,North,360,5.0,6.0,51,0.00,,,0.00,VWS V14.01,2013-01-25 00:20:00,
2013-01-24 17:25:00,40.0,23.4,29.99,North,360,5.0,7.0,51,0.00,,,0.00,VWS V14.01,2013-01-25 00:25:00,
2013-01-24 17:30:00,41.0,24.7,29.99,North,360,5.0,7.0,52,0.00,,,0.00,VWS V14.01,2013-01-25 00:30:00,
2013-01-24 17:35:00,41.0,24.7,29.99,North,360,4.0,7.0,52,0.00,,,0.00,VWS V14.01,2013-01-25 00:35:00,
2013-01-24 17:40:00,42.0,25.2,29.98,North,360,5.0,8.0,51,0.00,,,0.00,VWS V14.01,2013-01-25 00:40:00,
2013-01-24 17:45:00,41.0,24.7,29.98,NNW,337,1.0,6.0,52,0.00,,,0.00,VWS V14.01,2013-01-25 00:45:00,
2013-01-24 17:50:00,41.0,24.7,29.99,NNW,337,0.0,1.0,52,0.00,,,0.00,VWS V14.01,2013-01-25 00:50:00,
2013-01-24 17:55:00,41.0,24.7,29.99,NW,315,1.0,2.0,52,0.00,,,0.00,VWS V14.01,2013-01-25 00:55:00,
2013-01-24 18:00:00,41.0,24.7,30.00,NNW,337,6.0,8.0,52,0.00,,,0.00,VWS V14.01,2013-01-25 01:00:00,
2013-01-24 18:05:00,41.0,24.7,30.00,NNW,337,12.0,12.0,52,0.00,,,0.00,VWS V14.01,2013-01-25 01:05:00,
2013-01-24 18:11:00,41.0,24.7,30.00,NW,315,10.0,15.0,52,0.00,,,0.00,VWS V14.01,2013-01-25 01:11:00,
2013-01-24 18:16:00,41.0,24.7,30.00,NW,315,13.0,18.0,52,0.00,,,0.00,VWS V14.01,2013-01-25 01:16:00,
2013-01-24 18:21:00,41.0,24.3,30.00,NW,315,15.0,17.0,51,0.00,,,0.00,VWS V14.01,2013-01-25 01:21:00,
2013-01-24 18:26:00,41.0,24.3,30.00,NW,315,18.0,20.0,51,0.00,,,0.00,VWS V14.01,2013-01-25 01:26:00,
2013-01-24 18:31:00,40.0,23.8,30.01,NW,315,22.0,24.0,52,0.00,,,0.00,VWS V14.01,2013-01-25 01:31:00,
2013-01-24 18:36:00,39.0,23.3,30.01,NW,315,20.0,26.0,53,0.00,,,0.00,VWS V14.01,2013-01-25 01:36:00,
2013-01-24 18:41:00,39.0,23.8,30.01,NNW,337,18.0,26.0,54,0.00,,,0.00,VWS V14.01,2013-01-25 01:41:00,
2013-01-24 18:46:00,38.0,23.7,30.01,NNW,337,17.0,22.0,56,0.00,,,0.00,VWS V14.01,2013-01-25 01:46:00,
2013-01-24 18:51:00,38.0,23.7,30.02,NW,315,22.0,23.0,56,0.00,,,0.00,VWS V14.01,2013-01-25 01:51:00,
2013-01-24 18:56:00,38.0,23.7,30.02,NNW,337,19.0,22.0,56,0.00,,,0.00,VWS V14.01,2013-01-25 01:56:00,
2013-01-24 19:01:00,39.0,24.6,30.03,NNW,337,19.0,22.0,56,0.00,,,0.00,VWS V14.01,2013-01-25 02:01:00,
2013-01-24 19:06:00,39.0,24.2,30.03,NNW,337,19.0,23.0,55,0.00,,,0.00,VWS V14.01,2013-01-25 02:06:00,
2013-01-24 19:11:00,38.0,23.7,30.04,NNW,337,18.0,21.0,56,0.00,,,0.00,VWS V14.01,2013-01-25 02:11:00,
2013-01-24 19:16:00,38.0,24.1,30.04,NW,315,12.0,17.0,57,0.00,,,0.00,VWS V14.01,2013-01-25 02:16:00,
2013-01-24 19:21:00,37.0,24.0,30.05,NW,315,14.0,15.0,59,0.00,,,0.00,VWS V14.01,2013-01-25 02:21:00,
2013-01-24 19:26:00,36.0,23.9,30.05,NW,315,10.0,14.0,61,0.00,,,0.00,VWS V14.01,2013-01-25 02:26:00,
2013-01-24 19:31:00,36.0,24.3,30.07,NW,315,10.0,13.0,62,0.00,,,0.00,VWS V14.01,2013-01-25 02:31:00,
2013-01-24 19:36:00,35.0,23.7,30.07,NW,315,10.0,12.0,63,0.00,,,0.00,VWS V14.01,2013-01-25 02:36:00,
2013-01-24 19:41:00,34.0,23.5,30.08,NW,315,9.0,10.0,65,0.00,,,0.00,VWS V14.01,2013-01-25 02:41:00,
2013-01-24 19:46:00,34.0,23.5,30.08,NW,315,7.0,9.0,65,0.00,,,0.00,VWS V14.01,2013-01-25 02:46:00,
2013-01-24 19:51:00,34.0,23.5,30.09,NW,315,8.0,10.0,65,0.00,,,0.00,VWS V14.01,2013-01-25 02:51:00,
2013-01-24 19:56:00,33.0,22.9,30.09,NW,315,9.0,9.0,66,0.00,,,0.00,VWS V14.01,2013-01-25 02:56:00,
2013-01-24 20:01:00,34.0,23.9,30.09,NW,315,7.0,10.0,66,0.00,,,0.00,VWS V14.01,2013-01-25 03:01:00,
2013-01-24 20:06:00,34.0,23.9,30.09,NW,315,10.0,11.0,66,0.00,,,0.00,VWS V14.01,2013-01-25 03:06:00,
2013-01-24 20:11:00,34.0,23.9,30.10,NW,315,8.0,10.0,66,0.00,,,0.00,VWS V14.01,2013-01-25 03:11:00,
2013-01-24 20:16:00,34.0,23.9,30.10,NW,315,7.0,9.0,66,0.00,,,0.00,VWS V14.01,2013-01-25 03:16:00,
2013-01-24 20:21:00,32.0,23.0,30.11,NW,315,0.0,7.0,69,0.00,,,0.00,VWS V14.01,2013-01-25 03:21:00,
2013-01-24 20:26:00,33.0,23.2,30.11,WNW,292,4.0,7.0,67,0.00,,,0.00,VWS V14.01,2013-01-25 03:26:00,
2013-01-24 20:31:00,32.0,23.3,30.12,WNW,292,2.0,7.0,70,0.00,,,0.00,VWS V14.01,2013-01-25 03:31:00,
2013-01-24 20:36:00,31.0,23.0,30.12,NW,315,6.0,6.0,72,0.00,,,0.00,VWS V14.01,2013-01-25 03:36:00,
2013-01-24 20:41:00,32.0,23.3,30.12,NW,315,8.0,9.0,70,0.00,,,0.00,VWS V14.01,2013-01-25 03:41:00,
2013-01-24 20:46:00,33.0,23.2,30.12,NW,315,8.0,9.0,67,0.00,,,0.00,VWS V14.01,2013-01-25 03:46:00,
2013-01-24 20:51:00,32.0,23.3,30.12,NW,315,4.0,7.0,70,0.00,,,0.00,VWS V14.01,2013-01-25 03:51:00,
2013-01-24 20:56:00,31.0,22.7,30.12,WNW,292,8.0,8.0,71,0.00,,,0.00,VWS V14.01,2013-01-25 03:56:00,
2013-01-24 21:01:00,31.0,23.0,30.13,WNW,292,6.0,9.0,72,0.00,,,0.00,VWS V14.01,2013-01-25 04:01:00,
2013-01-24 21:06:00,31.0,22.7,30.13,WNW,292,2.0,7.0,71,0.00,,,0.00,VWS V14.01,2013-01-25 04:06:00,
2013-01-24 21:11:00,29.0,22.4,30.15,NW,315,9.0,9.0,76,0.00,,,0.00,VWS V14.01,2013-01-25 04:11:00,
2013-01-24 21:16:00,29.0,22.1,30.15,WNW,292,6.0,9.0,75,0.00,,,0.00,VWS V14.01,2013-01-25 04:16:00,
2013-01-24 21:21:00,30.0,23.4,30.15,WNW,292,6.0,9.0,76,0.00,,,0.00,VWS V14.01,2013-01-25 04:21:00,
2013-01-24 21:26:00,29.0,22.1,30.15,NW,315,4.0,7.0,75,0.00,,,0.00,VWS V14.01,2013-01-25 04:26:00,
2013-01-24 21:31:00,28.0,22.0,30.16,NW,315,7.0,7.0,78,0.00,,,0.00,VWS V14.01,2013-01-25 04:31:00,
2013-01-24 21:36:00,29.0,22.4,30.16,NW,315,7.0,7.0,76,0.00,,,0.00,VWS V14.01,2013-01-25 04:36:00,
2013-01-24 21:41:00,30.0,22.7,30.15,NW,315,5.0,7.0,74,0.00,,,0.00,VWS V14.01,2013-01-25 04:41:00,
2013-01-24 21:46:00,30.0,22.4,30.15,WNW,292,6.0,6.0,73,0.00,,,0.00,VWS V14.01,2013-01-25 04:46:00,
2013-01-24 21:51:00,29.0,22.1,30.16,WNW,292,3.0,6.0,75,0.00,,,0.00,VWS V14.01,2013-01-25 04:51:00,
2013-01-24 21:56:00,26.0,21.3,30.16,WNW,292,4.0,5.0,82,0.00,,,0.00,VWS V14.01,2013-01-25 04:56:00,
2013-01-24 22:00:00,27.0,21.7,30.17,WNW,292,5.0,5.0,80,0.00,,,0.00,VWS V14.01,2013-01-25 05:00:00,
2013-01-24 22:01:00,26.0,21.6,30.17,WNW,292,4.0,5.0,83,0.00,,,0.00,VWS V14.01,2013-01-25 05:01:00,
2013-01-24 22:03:00,28.0,21.1,30.17,NW,315,5.0,6.0,75,0.00,,,0.00,VWS V14.01,2013-01-25 05:03:00,
2013-01-24 22:08:00,29.0,22.4,30.17,WNW,292,3.0,5.0,76,0.00,,,0.00,VWS V14.01,2013-01-25 05:08:00,
2013-01-24 22:13:00,30.0,22.4,30.17,WNW,292,2.0,6.0,73,0.00,,,0.00,VWS V14.01,2013-01-25 05:13:00,
2013-01-24 22:18:00,34.0,22.4,30.13,WNW,292,3.0,7.0,62,0.00,,,0.00,VWS V14.01,2013-01-25 05:18:00,
2013-01-24 22:23:00,31.0,21.7,30.13,NW,315,4.0,6.0,68,0.00,,,0.00,VWS V14.01,2013-01-25 05:23:00,
2013-01-24 22:28:00,29.0,22.1,30.16,NW,315,2.0,4.0,75,0.00,,,0.00,VWS V14.01,2013-01-25 05:28:00,
2013-01-24 22:33:00,32.0,22.3,30.16,WNW,292,2.0,5.0,67,0.00,,,0.00,VWS V14.01,2013-01-25 05:33:00,
2013-01-24 22:38:00,30.0,21.8,30.16,West,270,0.0,0.0,71,0.00,,,0.00,VWS V14.01,2013-01-25 05:38:00,
2013-01-24 22:43:00,28.0,20.5,30.16,SW,225,0.0,2.0,73,0.00,,,0.00,VWS V14.01,2013-01-25 05:43:00,
2013-01-24 22:48:00,29.0,22.1,30.17,SW,225,1.0,5.0,75,0.00,,,0.00,VWS V14.01,2013-01-25 05:48:00,
2013-01-24 22:53:00,29.0,21.8,30.17,SW,225,0.0,1.0,74,0.00,,,0.00,VWS V14.01,2013-01-25 05:53:00,
2013-01-24 22:58:00,31.0,22.4,30.16,SW,225,0.0,6.0,70,0.00,,,0.00,VWS V14.01,2013-01-25 05:58:00,
2013-01-24 23:03:00,30.0,21.8,30.16,SW,225,0.0,6.0,71,0.00,,,0.00,VWS V14.01,2013-01-25 06:03:00,
2013-01-24 23:08:00,29.0,21.4,30.17,SW,225,0.0,4.0,73,0.00,,,0.00,VWS V14.01,2013-01-25 06:08:00,
2013-01-24 23:13:00,28.0,21.1,30.17,West,270,0.0,1.0,75,0.00,,,0.00,VWS V14.01,2013-01-25 06:13:00,
2013-01-24 23:18:00,28.0,21.4,30.18,West,270,3.0,5.0,76,0.00,,,0.00,VWS V14.01,2013-01-25 06:18:00,
2013-01-24 23:24:00,27.0,21.1,30.18,SW,225,6.0,6.0,78,0.00,,,0.00,VWS V14.01,2013-01-25 06:24:00,
2013-01-24 23:29:00,28.0,22.0,30.18,SW,225,5.0,7.0,78,0.00,,,0.00,VWS V14.01,2013-01-25 06:29:00,
2013-01-24 23:34:00,28.0,21.7,30.18,WSW,247,2.0,7.0,77,0.00,,,0.00,VWS V14.01,2013-01-25 06:34:00,
2013-01-24 23:39:00,29.0,22.7,30.17,SW,225,7.0,9.0,77,0.00,,,0.00,VWS V14.01,2013-01-25 06:39:00,
2013-01-24 23:44:00,31.0,22.4,30.17,SW,225,5.0,11.0,70,0.00,,,0.00,VWS V14.01,2013-01-25 06:44:00,
2013-01-24 23:49:00,32.0,22.6,30.16,West,270,4.0,10.0,68,0.00,,,0.00,VWS V14.01,2013-01-25 06:49:00,
2013-01-24 23:54:00,31.0,21.7,30.16,WSW,247,7.0,11.0,68,0.00,,,0.00,VWS V14.01,2013-01-25 06:54:00,
2013-01-24 23:59:00,33.0,22.5,30.15,WSW,247,8.0,10.0,65,0.00,,,0.00,VWS V14.01,2013-01-25 06:59:00,